Location: Newark
(48.3983°N, 16.0611°E)
Time: 07:24:49
(UTC+00:00)

ISS - Pass Details

Date: 27 January 2020
Orbit: 415 x 422 km, 51.6° (Epoch: 22 February)

Event Time Altitude Azimuth Distance (km) Brightness Sun altitude
Rises 18:12:39 0° 277° (W) 2,379 1.5 -24.3°
Reaches altitude 10° 18:14:48 10° 284° (WNW) 1,512 0.1 -24.6°
Enters shadow 18:16:50 30° 305° (NW) 791 -1.9 -24.9°
